Weather Roundup
Issued by NWS

Home | Current Version | Previous Version | Text Only | Print | Product List | Glossary On
Versions: 1 2 3 4 5 6 7 8 9 10 11 12 13 14 15 16 17 18 19 20 21 22 23 24 25 26 27 28 29 30 31 32 33 34 35 36 37 38 39 40 41 42 43 44 45 46 47 48 49 50
000
NZUS93 KARX 271910
HRRWXR

CURRENT HOURLY OBSERVATIONS ACROSS
MUCH OF THE UPPER MISSISSIPPI VALLEY
NATIONAL WEATHER SERVICE LA CROSSE WI
100 PM CST FRI FEB 27 2015


...SOUTHEAST MINNESOTA...


CITY           SKY/WX    TMP DP  RH WIND       PRES   REMARKS
ROCHESTER      SUNNY      4  -4  69 SW10      30.53F WCI -11
ROCHESTER/MAYO FAIR       9  -1  62 W8        30.54F WCI  -3
WINONA         SUNNY     12  -4  48 W6        30.59F WCI   3
AUSTIN         SUNNY      7  -2  66 W6        30.54F WCI  -3
ALBERT LEA     SUNNY      9   0  66 W5        30.53F WCI   0
DODGE CENTER   SUNNY      7  -2  66 W12       30.52F WCI  -9
PRESTON        SUNNY      5  -5  63 W8        30.54F WCI  -9
OWATONNA       SUNNY      7  -2  66 SW6       30.54F WCI  -3
FARIBAULT      SUNNY      9  -2  61 W8        30.55F WCI  -4
$$

...ELSEWHERE IN MINNESOTA...


CITY           SKY/WX    TMP DP  RH WIND       PRES   REMARKS
MINNEAPOLIS    SUNNY     12  -4  48 SW9       30.54F WCI   0
INTNL FALLS    SUNNY     15  -8  35 W9        30.34F WCI   3
DULUTH         SUNNY     14  -6  40 W14       30.38F WCI  -1
RED WING       SUNNY     12  -2  52 W12       30.56F WCI  -2
REDWOOD FALLS  SUNNY     10  -1  61 SW10      30.53F WCI  -4
MANKATO        SUNNY      9  -6  52 W8        30.55F WCI  -4
FAIRMONT       SUNNY     10   0  61 W7        30.53F WCI   0
$$

...SOUTHWEST WISCONSIN...


CITY           SKY/WX    TMP DP  RH WIND       PRES   REMARKS
LA CROSSE      SUNNY     14  -5  42 W3        30.59F
PRAIRIE DU CHI SUNNY     10  -6  47 SW10      30.61F WCI  -4
BOSCOBEL       SUNNY     14  -5  42 SW7       30.59F WCI   4
LONE ROCK      SUNNY     13  -6  42 W6        30.58F WCI   4
PLATTEVILLE    SUNNY     10  -4  51 W7        30.57F WCI  -1
FORT MC COY    SUNNY     13  -6  40 SW8       30.56F WCI   2
CAMP DOUGLAS   SUNNY     14  -4  44 W10       30.53F WCI   1
VIROQUA        FAIR      11  -5  47 W8        30.52F WCI   0
WIS DELLS      SUNNY     12  -6  44 W9        30.53F WCI   0
$$

...ELSEWHERE IN WISCONSIN...


CITY           SKY/WX    TMP DP  RH WIND       PRES   REMARKS
MILWAUKEE      SUNNY     16  -7  35 W7        30.56F WCI   6
MADISON        SUNNY     13  -6  42 SW6       30.55F WCI   4
GREEN BAY      SUNNY     15  -2  46 W15       30.50F WCI   0
EAU CLAIRE     SUNNY     10  -3  55 W10       30.53F WCI  -4
BLACK RVR FLS  FAIR      13  -8  37 W12       30.55F WCI   0
MEDFORD        SUNNY      8  -6  52 SW9       30.43F WCI  -6
WAUSAU         SUNNY      8  -6  52 W12       30.45F WCI  -7
WIS RAPIDS     SUNNY     13  -7  40 W10       30.51F WCI   0
MARSHFIELD     SUNNY     11  -6  46 W9        30.47F WCI  -2
RICE LAKE      SUNNY     10  -5  51 W9        30.51F WCI  -3
$$

...NORTHEAST IOWA...


CITY           SKY/WX    TMP DP  RH WIND       PRES   REMARKS
DECORAH        SUNNY      7  -8  51 W8        30.55F WCI  -6
MASON CITY     SUNNY      5  -4  66 W8        30.57F WCI  -8
CHARLES CITY   SUNNY      5  -6  61 W8        30.58F WCI  -8
OELWEIN        SUNNY      3  -2  78 SW5       30.59F WCI  -6
$$

...ELSEWHERE IN IOWA...


CITY           SKY/WX    TMP DP  RH WIND       PRES   REMARKS
DES MOINES     MOSUNNY   13  -2  51 N5        30.62F WCI   5
IOWA CITY      SUNNY      5  -4  66 W7        30.67F WCI  -7
FORT DODGE     SUNNY      9  -2  61 SW3       30.59F
$$

...NORTHERN ILLINOIS...


CITY           SKY/WX    TMP DP  RH WIND       PRES   REMARKS
CHICAGO-OHARE  SUNNY     13  -5  44 SW8       30.59F WCI   2
CHICAGO-MIDWAY SUNNY     16  -2  45 W10       30.61F WCI   4
MOLINE         SUNNY     13  -4  46 CALM      30.64F
ROCKFORD       SUNNY     11  -6  46 W12       30.61F WCI  -3
PEORIA         SUNNY     13  -3  49 W7        30.64F WCI   3
$$

NOTE: "FAIR" INDICATES FEW OR NO CLOUDS BELOW 12,000 FEET WITH NO
SIGNIFICANT WEATHER AND/OR OBSTRUCTIONS TO VISIBILITY. WIND
SPEEDS ARE IN MILES-PER-HOUR.



USA.gov is the U.S. government's official web portal to all federal, state and local government web resources and services.